Waarnemingen

Advertentie
Mijn weer
Enkoping, Zweden (2443): temperatuur & dauwpunt: 18.08.2019 00:00:00 - 24.08.2019 00:00:00 (CEST)Enkoping, Zweden (2443): windsnelheid & windstoten: 18.08.2019 00:00:00 - 24.08.2019 00:00:00 (CEST)Enkoping, Zweden (2443): windrichting: 18.08.2019 00:00:00 - 24.08.2019 00:00:00 (CEST)Enkoping, Zweden (2443): luchtdruk: 18.08.2019 00:00:00 - 24.08.2019 00:00:00 (CEST)Enkoping, Zweden (2443): zicht: 18.08.2019 00:00:00 - 24.08.2019 00:00:00 (CEST)Enkoping, Zweden (2443): neerslag: 18.08.2019 00:00:00 - 24.08.2019 00:00:00 (CEST)
Datum & Tijd tt [°C] td [°C] ff [km/u] ff [kn] fx [km/u] fx [kn] dd ppp [hPa] vv [km] rr [mm]
24.08.2019 00:00:00 15,3 14,8 4 2 14 8 WZW 1020,2 20 0,0
23.08.2019 23:00:00 15,8 15,2 7 4 14 8 WZW 1019,7 22 0,0
23.08.2019 22:00:00 15,8 15,2 4 2 18 10 WZW 1019,2 24 0,0
23.08.2019 21:00:00 16,4 15,6 7 4 18 10 WZW 1018,7 29 0,0
23.08.2019 20:00:00 17,1 16,0 7 4 29 16 WZW 1017,9 35 0,0
23.08.2019 19:00:00 18,3 16,8 11 6 29 16 ZW 1017,0 45 0,0
23.08.2019 18:00:00 18,5 17,3 11 6 22 12 ZW 1016,8 45 0,0
23.08.2019 17:00:00 17,0 16,7 7 4 22 12 WZW 1016,9 40 6,0
23.08.2019 16:00:00 17,3 16,8 11 6 25 14 ZW 1016,8 24 0,5
23.08.2019 15:00:00 16,1 15,8 0 0 22 12 N 1016,9 11 5,0
23.08.2019 14:00:00 16,1 15,5 11 6 22 12 ZZW 1017,4 12 0,1
23.08.2019 13:00:00 15,1 14,6 7 4 18 10 Z 1017,4 17 0,4
23.08.2019 12:00:00 14,3 13,8 11 6 18 10 Z 1017,9 13 0,1
23.08.2019 11:00:00 14,2 13,7 11 6 22 12 Z 1018,3 13 0,9
23.08.2019 10:00:00 14,2 13,6 7 4 22 12 Z 1018,7 15 0,9
23.08.2019 09:00:00 14,9 13,3 11 6 25 14 ZZW 1018,7 28 0,0
23.08.2019 08:00:00 14,5 13,2 11 6 22 12 ZZW 1018,8 35 0,0
23.08.2019 07:00:00 13,8 13,0 7 4 14 8 ZW 1019,6 21 0,0
23.08.2019 06:00:00 13,4 12,8 7 4 14 8 ZZW 1019,9 20 0,0
23.08.2019 05:00:00 13,1 12,6 4 2 14 8 ZZW 1019,9 22 0,0
23.08.2019 04:00:00 13,3 12,7 7 4 22 12 Z 1020,1 30 0,0
23.08.2019 03:00:00 13,7 12,8 11 6 22 12 ZZW 1020,3 35 0,0
23.08.2019 02:00:00 13,9 12,9 7 4 22 12 ZZW 1020,4 35 0,0
23.08.2019 01:00:00 14,2 13,1 11 6 22 12 Z 1020,3 27 0,1
23.08.2019 00:00:00 14,1 13,6 7 4 14 8 Z 1020,8 25 0,8
22.08.2019 23:00:00 13,9 13,6 0 0 11 6 N 1021,1 12 0,9
22.08.2019 22:00:00 14,3 13,7 7 4 11 6 ZZO 1022,0 17 0,5
22.08.2019 21:00:00 14,8 13,3 4 2 18 10 ZZW 1022,3 28 0,7
22.08.2019 20:00:00 15,2 13,9 4 2 22 12 Z 1022,3 9 1,0
22.08.2019 19:00:00 17,8 12,7 4 2 14 8 ZZW 1022,1 28 0,0
22.08.2019 18:00:00 18,8 11,6 7 4 18 10 Z 1022,1 45 0,0
22.08.2019 17:00:00 19,3 11,6 7 4 25 14 ZZW 1022,5 50 0,0
22.08.2019 16:00:00 19,6 11,9 11 6 32 18 ZW 1022,7 45 0,0
22.08.2019 15:00:00 19,7 11,5 14 8 25 14 ZW 1023,2 40 0,0
22.08.2019 14:00:00 20,1 11,8 14 8 29 16 ZW 1023,4 35 0,0
22.08.2019 13:00:00 19,4 11,4 14 8 25 14 ZZW 1023,6 40 0,0
22.08.2019 12:00:00 18,4 11,5 18 10 29 16 ZW 1023,9 45 0,0
22.08.2019 11:00:00 18,2 12,4 11 6 22 12 WZW 1024,1 35 0,0
22.08.2019 10:00:00 16,4 12,4 11 6 25 14 ZW 1024,0 40 0,0
22.08.2019 09:00:00 15,2 12,5 7 4 18 10 ZW 1023,9 40 0,0
22.08.2019 08:00:00 13,8 12,0 7 4 14 8 WZW 1023,8 27 0,0
22.08.2019 07:00:00 12,6 11,3 4 2 11 6 WZW 1023,7 27 0,0
22.08.2019 06:00:00 11,4 10,5 4 2 11 6 ZW 1023,5 30 0,0
22.08.2019 05:00:00 11,3 10,2 0 0 11 6 N 1023,2 35 0,0
22.08.2019 04:00:00 11,8 10,4 0 0 7 4 N 1023,1 50 0,0
22.08.2019 03:00:00 12,5 10,2 4 2 14 8 ZW 1022,8 50 0,0
22.08.2019 02:00:00 13,6 10,0 4 2 18 10 WZW 1022,3 50 0,0
22.08.2019 01:00:00 14,7 10,5 4 2 14 8 WZW 1022,0 50 0,0
22.08.2019 00:00:00 15,1 10,7 4 2 14 8 WZW 1021,6 50 0,0
21.08.2019 23:00:00 15,0 11,2 0 0 0 0 N 1021,3 50 0,0
21.08.2019 22:00:00 14,1 10,9 0 0 0 0 N 1020,9 45 0,0
21.08.2019 21:00:00 15,0 10,4 0 0 0 0 N 1020,5 45 0,0
21.08.2019 20:00:00 17,0 10,4 0 0 18 10 N 1020,3 50 0,0
21.08.2019 19:00:00 18,4 9,5 7 4 22 12 WZW 1020,0 40 0,0
21.08.2019 18:00:00 18,8 9,6 11 6 25 14 WZW 1019,8 35 0,0
21.08.2019 17:00:00 19,1 10,4 11 6 25 14 WZW 1019,9 35 0,0
21.08.2019 16:00:00 19,2 11,5 14 8 29 16 ZW 1019,8 45 0,0
21.08.2019 15:00:00 19,6 12,1 14 8 25 14 ZW 1019,8 40 0,0
21.08.2019 14:00:00 18,2 12,4 11 6 22 12 ZW 1020,1 35 0,0
21.08.2019 13:00:00 19,1 12,6 11 6 29 16 ZW 1020,1 45 0,0
21.08.2019 12:00:00 18,2 13,1 11 6 25 14 ZW 1020,2 40 0,0
21.08.2019 11:00:00 17,3 13,2 7 4 22 12 WZW 1020,4 35 0,0
21.08.2019 10:00:00 16,3 13,0 11 6 18 10 ZW 1020,4 35 0,0
21.08.2019 09:00:00 15,6 13,3 11 6 18 10 WZW 1020,5 30 0,0
21.08.2019 08:00:00 14,5 12,9 7 4 14 8 ZZW 1020,3 35 0,0
21.08.2019 07:00:00 13,4 12,1 7 4 14 8 ZZW 1020,1 35 0,0
21.08.2019 06:00:00 12,2 11,7 4 2 11 6 Z 1019,8 35 0,0
21.08.2019 05:00:00 12,5 11,7 4 2 11 6 Z 1019,5 35 0,0
21.08.2019 04:00:00 12,8 11,5 4 2 11 6 ZW 1019,4 45 0,0
21.08.2019 03:00:00 12,5 11,6 0 0 11 6 N 1019,0 45 0,0
21.08.2019 02:00:00 12,9 11,6 4 2 11 6 ZW 1018,7 45 0,0
21.08.2019 01:00:00 13,3 12,0 4 2 7 4 Z 1018,7 45 0,0
21.08.2019 00:00:00 13,6 12,2 0 0 7 4 N 1018,3 45 0,0
20.08.2019 23:00:00 14,1 12,3 0 0 7 4 N 1018,2 45 0,0
20.08.2019 22:00:00 13,5 12,1 0 0 11 6 N 1018,0 45 0,0
20.08.2019 21:00:00 14,5 12,9 0 0 14 8 N 1017,7 40 0,0
20.08.2019 20:00:00 15,6 12,9 7 4 18 10 Z 1017,4 40 0,1
20.08.2019 19:00:00 15,8 13,5 0 0 22 12 N 1016,9 40 0,2
20.08.2019 18:00:00 18,7 11,3 7 4 18 10 WZW 1016,6 45 0,0
20.08.2019 17:00:00 20,2 11,7 11 6 25 14 WZW 1016,1 40 0,0
20.08.2019 16:00:00 20,9 11,5 14 8 32 18 ZW 1016,0 35 0,0
20.08.2019 15:00:00 20,9 11,8 18 10 32 18 ZW 1015,8 35 0,0
20.08.2019 14:00:00 20,0 12,0 18 10 32 18 WZW 1015,4 35 0,0
20.08.2019 13:00:00 19,3 12,3 18 10 36 19 ZW 1015,4 30 0,0
20.08.2019 12:00:00 18,6 12,4 18 10 36 19 ZW 1015,1 24 0,0
20.08.2019 11:00:00 17,9 13,2 11 6 25 14 ZW 1014,9 35 0,0
20.08.2019 10:00:00 16,5 13,2 11 6 25 14 ZW 1014,8 40 0,0
20.08.2019 09:00:00 15,7 13,4 11 6 22 12 ZW 1014,4 29 0,0
20.08.2019 08:00:00 14,9 13,3 7 4 18 10 ZW 1014,2 30 0,0
20.08.2019 07:00:00 14,1 12,8 7 4 14 8 ZZW 1013,8 30 0,0
20.08.2019 06:00:00 13,2 12,6 7 4 14 8 Z 1013,5 28 0,0
20.08.2019 05:00:00 12,9 12,1 4 2 11 6 Z 1012,9 30 0,0
20.08.2019 04:00:00 13,4 12,1 4 2 14 8 ZZW 1012,5 40 0,0
20.08.2019 03:00:00 13,9 12,1 7 4 14 8 ZZW 1011,9 45 0,0
20.08.2019 02:00:00 14,0 12,2 4 2 11 6 ZW 1011,4 45 0,0
20.08.2019 01:00:00 14,1 12,1 0 0 14 8 N 1011,1 45 0,0
20.08.2019 00:00:00 14,8 12,7 7 4 14 8 ZZW 1010,9 45 0,0
19.08.2019 23:00:00 14,8 13,2 0 0 11 6 N 1010,6 45 0,0
19.08.2019 22:00:00 16,0 13,1 4 2 18 10 Z 1010,4 45 0,0
19.08.2019 21:00:00 16,6 12,7 7 4 11 6 Z 1010,0 35 0,0
19.08.2019 20:00:00 16,8 12,3 0 0 14 8 N 1009,4 45 0,0
19.08.2019 19:00:00 17,7 12,8 7 4 18 10 ZZW 1009,3 45 0,0
19.08.2019 18:00:00 16,5 14,0 7 4 25 14 ZZW 1009,1 35 0,3
19.08.2019 17:00:00 18,6 12,4 7 4 22 12 ZW 1008,5 35 0,1
19.08.2019 16:00:00 20,7 11,6 14 8 29 16 ZW 1007,9 26 0,0
19.08.2019 15:00:00 20,3 11,8 14 8 32 18 ZW 1007,5 30 0,0
19.08.2019 14:00:00 20,0 12,7 11 6 36 19 ZW 1007,1 35 0,0
19.08.2019 13:00:00 18,8 12,5 14 8 29 16 ZW 1006,6 30 0,0
19.08.2019 12:00:00 18,0 13,3 14 8 32 18 ZW 1006,1 35 0,0
19.08.2019 11:00:00 17,2 13,5 11 6 29 16 ZW 1005,5 35 0,0
19.08.2019 10:00:00 16,5 13,0 14 8 36 19 WZW 1005,3 45 0,0
19.08.2019 09:00:00 15,7 12,8 14 8 36 19 W 1004,1 45 0,0
19.08.2019 08:00:00 15,4 13,9 7 4 22 12 WZW 1003,7 40 0,0
19.08.2019 07:00:00 14,2 13,7 11 6 18 10 ZW 1003,0 35 0,0
19.08.2019 06:00:00 13,7 13,4 7 4 14 8 ZZW 1002,3 27 0,0
19.08.2019 05:00:00 13,8 13,5 4 2 14 8 ZZW 1001,8 29 0,0
19.08.2019 04:00:00 14,0 13,7 7 4 14 8 ZZW 1001,5 30 0,0
19.08.2019 03:00:00 13,9 13,7 4 2 11 6 ZZW 1001,6 11 1,0
19.08.2019 02:00:00 13,8 13,6 4 2 7 4 Z 1001,8 11 0,6
19.08.2019 01:00:00 13,9 13,6 4 2 7 4 Z 1001,9 23 0,3
19.08.2019 00:00:00 14,5 14,2 4 2 11 6 ZZO 1001,8 22 0,8
18.08.2019 23:00:00 15,2 15,0 7 4 11 6 Z 1002,4 15 0,8
18.08.2019 22:00:00 15,2 15,0 4 2 7 4 ZZO 1002,8 13 0,5
18.08.2019 21:00:00 15,4 15,2 0 0 7 4 N 1003,5 13 0,5
18.08.2019 20:00:00 15,6 15,1 4 2 7 4 ZZO 1003,7 17 0,0
18.08.2019 19:00:00 15,7 15,2 4 2 7 4 ZZO 1003,6 30 0,0
18.08.2019 18:00:00 15,7 15,2 0 0 22 12 N 1003,5 40 0,3
18.08.2019 17:00:00 15,6 15,0 7 4 22 12 W 1004,1 9 6,0
18.08.2019 16:00:00 18,0 16,7 0 0 11 6 N 1003,3 15 0,2
18.08.2019 15:00:00 19,9 16,1 0 0 11 6 N 1003,7 45 0,0
18.08.2019 14:00:00 20,1 16,3 4 2 14 8 OZO 1004,5 40 0,0
18.08.2019 13:00:00 19,5 15,8 7 4 14 8 Z 1004,9 40 0,0
18.08.2019 12:00:00 19,0 15,9 7 4 14 8 ZZW 1005,3 40 0,0
18.08.2019 11:00:00 18,4 15,8 11 6 18 10 Z 1005,4 40 0,0
18.08.2019 10:00:00 17,6 16,5 7 4 18 10 Z 1005,2 30 0,0
18.08.2019 09:00:00 17,1 16,5 4 2 11 6 Z 1005,3 25 0,0
18.08.2019 08:00:00 16,5 16,0 7 4 18 10 Z 1005,4 21 0,0
18.08.2019 07:00:00 16,2 15,7 7 4 18 10 Z 1005,4 21 0,0
18.08.2019 06:00:00 15,9 15,6 7 4 18 10 Z 1005,3 21 0,8
18.08.2019 05:00:00 15,8 15,5 7 4 18 10 Z 1005,3 9 3,0
18.08.2019 04:00:00 16,1 15,5 7 4 18 10 ZZO 1005,5 25 0,0
18.08.2019 03:00:00 16,0 15,5 7 4 14 8 ZZO 1005,9 22 0,0
18.08.2019 02:00:00 15,8 15,3 4 2 14 8 ZZO 1006,2 24 0,1
18.08.2019 01:00:00 15,5 15,2 7 4 25 14 ZZO 1006,3 15 0,6
18.08.2019 00:00:00 16,0 14,5 11 6 29 16 Z 1006,2 40 0,2

tt = temperatuur
td = dauwpunt
ff = windsnelheid
fx = windstoten
dd = windrichting
ppp = luchtdruk
vv = zicht
rr = neerslag

Weerstations in de omgeving